(°C)
29°
31°
32°
32°
33°
32°
31°
(°C)
31°
33°
34°
35°
35°
34°
33°
GGB
GB
BGB
B
B
BKB
BKB
(km/saat)
4-10
6-11
8-14
10-18
11-20
10-19
8-17
(mm)
0
0
0
0
0
0
0
(%)
0
0
0
0
5
18
36

Güneşin açısı

/ 54.3°
sun-icon
UV 10
06:10
21:09
Artan Yarımay (16°)
06:55
22:35

Yanya (LGIO) için METAR

Zaman Koşullar Sıcaklık/
Çiy noktası
Rüzgar Görünürlük Hava Bulutlar Basınç Değiştir Ham
VFR 28°C / 17°C 100º 4kt >10km - Few Clouds 3500ft 1015 - LGIO 300750Z 10004KT 9999 FEW035 28/17 Q1015
VFR 27°C / 18°C 120º variable 080º to 140º 4kt >10km - Few Clouds 3500ft 1015 - LGIO 300720Z 12004KT 080V140 9999 FEW035 27/18 Q1015
VFR 26°C / 18°C 110º 5kt >10km - Few Clouds 3500ft 1015 - LGIO 300650Z 11005KT 9999 FEW035 26/18 Q1015
25°C / 18°C 100º 4kt - 1016 - LGIO 300620Z AUTO 10004KT //// // ////// 25/18 Q1016 RE//
25°C / 17°C variable 1kt - 1016 - LGIO 300550Z AUTO VRB01KT //// // ////// 25/17 Q1016 RE//
22°C / 18°C variable 1kt - 1016 - LGIO 300520Z AUTO VRB01KT //// // ////// 22/18 Q1016 RE//
VFR 21°C / 17°C 350º 1kt >10km - Clouds and Visibility OK 1015 - LGIO 300450Z 35001KT CAVOK 21/17 Q1015
19°C / 17°C variable 1kt - 1015 - LGIO 300420Z AUTO VRB01KT //// // ////// 19/17 Q1015 RE//
18°C / 16°C variable 0kt - 1015 - LGIO 300350Z AUTO 00000KT //// // ////// 18/16 Q1015 RE//
17°C / 16°C variable 1kt - 1015 - LGIO 300320Z AUTO VRB01KT //// // ////// 17/16 Q1015 RE//
18°C / 17°C variable 2kt - 1015 - LGIO 300250Z AUTO VRB02KT //// // ////// 18/17 Q1015 RE//
18°C / 17°C variable 2kt - 1015 - LGIO 300220Z AUTO VRB02KT //// // ////// 18/17 Q1015 RE//
18°C / 17°C variable 0kt - 1015 - LGIO 300150Z AUTO 00000KT //// // ////// 18/17 Q1015 RE//
19°C / 17°C variable 1kt - 1015 - LGIO 300120Z AUTO VRB01KT //// // ////// 19/17 Q1015 RE//
19°C / 17°C variable 0kt - 1015 - LGIO 300050Z AUTO 00000KT //// // ////// 19/17 Q1015 RE//
19°C / 17°C variable 1kt - 1015 - LGIO 300020Z AUTO VRB01KT //// // ////// 19/17 Q1015 RE//
20°C / 17°C variable 2kt - 1015 - LGIO 292350Z AUTO VRB02KT //// // ////// 20/17 Q1015 RE//
21°C / 17°C variable 0kt - 1015 - LGIO 292320Z AUTO 00000KT //// // ////// 21/17 Q1015 RE//
21°C / 17°C variable 0kt - 1015 - LGIO 292250Z AUTO 00000KT //// // ////// 21/17 Q1015 RE//
21°C / 17°C variable 0kt - 1015 - LGIO 292220Z AUTO 00000KT //// // ////// 21/17 Q1015 RE//
22°C / 17°C variable 0kt - 1015 - LGIO 292150Z AUTO 00000KT //// // ////// 22/17 Q1015 RE//
23°C / 16°C variable 0kt - 1015 - LGIO 292120Z AUTO 00000KT //// // ////// 23/16 Q1015 RE//
24°C / 17°C variable 1kt - 1015 - LGIO 292050Z AUTO VRB01KT //// // ////// 24/17 Q1015 RE//
26°C / 16°C variable 2kt - 1015 - LGIO 292020Z AUTO VRB02KT //// // ////// 26/16 Q1015 RE//

VFR

28°C / 17°C

[Daha fazla]
Rüzgar 100º 4kt
Görünürlük >10km
Hava -
Bulutlar Few Clouds 3500ft
Basınç 1015
Değiştir -
Ham LGIO 300750Z 10004KT 9999 FEW035 28/17 Q1015

VFR

27°C / 18°C

[Daha fazla]
Rüzgar 120º variable 080º to 140º 4kt
Görünürlük >10km
Hava -
Bulutlar Few Clouds 3500ft
Basınç 1015
Değiştir -
Ham LGIO 300720Z 12004KT 080V140 9999 FEW035 27/18 Q1015

VFR

26°C / 18°C

[Daha fazla]
Rüzgar 110º 5kt
Görünürlük >10km
Hava -
Bulutlar Few Clouds 3500ft
Basınç 1015
Değiştir -
Ham LGIO 300650Z 11005KT 9999 FEW035 26/18 Q1015

25°C / 18°C

[Daha fazla]
Rüzgar 100º 4kt
Görünürlük
Hava -
Bulutlar
Basınç 1016
Değiştir -
Ham LGIO 300620Z AUTO 10004KT //// // ////// 25/18 Q1016 RE//

25°C / 17°C

[Daha fazla]
Rüzgar variable 1kt
Görünürlük
Hava -
Bulutlar
Basınç 1016
Değiştir -
Ham LGIO 300550Z AUTO VRB01KT //// // ////// 25/17 Q1016 RE//

22°C / 18°C

[Daha fazla]
Rüzgar variable 1kt
Görünürlük
Hava -
Bulutlar
Basınç 1016
Değiştir -
Ham LGIO 300520Z AUTO VRB01KT //// // ////// 22/18 Q1016 RE//

VFR

21°C / 17°C

[Daha fazla]
Rüzgar 350º 1kt
Görünürlük >10km
Hava -
Bulutlar Clouds and Visibility OK
Basınç 1015
Değiştir -
Ham LGIO 300450Z 35001KT CAVOK 21/17 Q1015

19°C / 17°C

[Daha fazla]
Rüzgar variable 1kt
Görünürlük
Hava -
Bulutlar
Basınç 1015
Değiştir -
Ham LGIO 300420Z AUTO VRB01KT //// // ////// 19/17 Q1015 RE//

18°C / 16°C

[Daha fazla]
Rüzgar variable 0kt
Görünürlük
Hava -
Bulutlar
Basınç 1015
Değiştir -
Ham LGIO 300350Z AUTO 00000KT //// // ////// 18/16 Q1015 RE//

17°C / 16°C

[Daha fazla]
Rüzgar variable 1kt
Görünürlük
Hava -
Bulutlar
Basınç 1015
Değiştir -
Ham LGIO 300320Z AUTO VRB01KT //// // ////// 17/16 Q1015 RE//

18°C / 17°C

[Daha fazla]
Rüzgar variable 2kt
Görünürlük
Hava -
Bulutlar
Basınç 1015
Değiştir -
Ham LGIO 300250Z AUTO VRB02KT //// // ////// 18/17 Q1015 RE//

18°C / 17°C

[Daha fazla]
Rüzgar variable 2kt
Görünürlük
Hava -
Bulutlar
Basınç 1015
Değiştir -
Ham LGIO 300220Z AUTO VRB02KT //// // ////// 18/17 Q1015 RE//

18°C / 17°C

[Daha fazla]
Rüzgar variable 0kt
Görünürlük
Hava -
Bulutlar
Basınç 1015
Değiştir -
Ham LGIO 300150Z AUTO 00000KT //// // ////// 18/17 Q1015 RE//

19°C / 17°C

[Daha fazla]
Rüzgar variable 1kt
Görünürlük
Hava -
Bulutlar
Basınç 1015
Değiştir -
Ham LGIO 300120Z AUTO VRB01KT //// // ////// 19/17 Q1015 RE//

19°C / 17°C

[Daha fazla]
Rüzgar variable 0kt
Görünürlük
Hava -
Bulutlar
Basınç 1015
Değiştir -
Ham LGIO 300050Z AUTO 00000KT //// // ////// 19/17 Q1015 RE//

19°C / 17°C

[Daha fazla]
Rüzgar variable 1kt
Görünürlük
Hava -
Bulutlar
Basınç 1015
Değiştir -
Ham LGIO 300020Z AUTO VRB01KT //// // ////// 19/17 Q1015 RE//

20°C / 17°C

[Daha fazla]
Rüzgar variable 2kt
Görünürlük
Hava -
Bulutlar
Basınç 1015
Değiştir -
Ham LGIO 292350Z AUTO VRB02KT //// // ////// 20/17 Q1015 RE//

21°C / 17°C

[Daha fazla]
Rüzgar variable 0kt
Görünürlük
Hava -
Bulutlar
Basınç 1015
Değiştir -
Ham LGIO 292320Z AUTO 00000KT //// // ////// 21/17 Q1015 RE//

21°C / 17°C

[Daha fazla]
Rüzgar variable 0kt
Görünürlük
Hava -
Bulutlar
Basınç 1015
Değiştir -
Ham LGIO 292250Z AUTO 00000KT //// // ////// 21/17 Q1015 RE//

21°C / 17°C

[Daha fazla]
Rüzgar variable 0kt
Görünürlük
Hava -
Bulutlar
Basınç 1015
Değiştir -
Ham LGIO 292220Z AUTO 00000KT //// // ////// 21/17 Q1015 RE//

22°C / 17°C

[Daha fazla]
Rüzgar variable 0kt
Görünürlük
Hava -
Bulutlar
Basınç 1015
Değiştir -
Ham LGIO 292150Z AUTO 00000KT //// // ////// 22/17 Q1015 RE//

23°C / 16°C

[Daha fazla]
Rüzgar variable 0kt
Görünürlük
Hava -
Bulutlar
Basınç 1015
Değiştir -
Ham LGIO 292120Z AUTO 00000KT //// // ////// 23/16 Q1015 RE//

24°C / 17°C

[Daha fazla]
Rüzgar variable 1kt
Görünürlük
Hava -
Bulutlar
Basınç 1015
Değiştir -
Ham LGIO 292050Z AUTO VRB01KT //// // ////// 24/17 Q1015 RE//

26°C / 16°C

[Daha fazla]
Rüzgar variable 2kt
Görünürlük
Hava -
Bulutlar
Basınç 1015
Değiştir -
Ham LGIO 292020Z AUTO VRB02KT //// // ////// 26/16 Q1015 RE//

Yanya (LGIO) için TAF

From till


From till Wind variable 3kt. Visibility 10km or more. Few Clouds 3000ft.
Becoming from till Wind variable 3kt. Visibility 10km or more. Few Clouds 2500ft. Scattered Clouds 8000ft.
With 40% probability, Temporarly from till Visibility 6000m. Showers Rain . Few Clouds 2000ft. Scattered Clouds 2500ft. Broken Clouds 8000ft.
With 30% probability, Temporarly from till Visibility 4000m. Thunderstorm Rain . Few Clouds 1800ft. Scattered Clouds 2000ft. Broken Clouds 7000ft.

Ham: TAF LGIO 300500Z 3006/3015 VRB03KT 9999 FEW030 BECMG 3008/3010 FEW025 SCT080 PROB40 TEMPO 3010/3015 6000 SHRA FEW020TCU SCT025 BKN080 PROB30 TEMPO 3012/3015 4000 TSRA FEW018CB SCT020 BKN070

Yanya için radar ve yağış nowcast

Çise
Hafif
Orta
Ağır
Çok ağır
Dolu

Konum işaretleyicisi Yanya üzerine yerleştirilir. Bu animasyon son saat içerisindeki yağış radarını ve 1h tahminini gösterir. Hafif yağmur veya kar yağışı radar için görünmez olabilir. Yağış şiddeti açık mavi ile koyu mor arasındaki renklerle kodlanmıştır.

Yanya için şu anki uydu ve yağmur görüntüleri, Yunanistan

Konum işaretleyici Yanya üzerine yerleştirilir. [Daha fazla]

Gerçek zamanlı uydu görüntüsü gündüz süresince görülür ışığı gece süresince kızılötesi ışınım ile birleştirir. Gece kızılötesi ışınım sıcaklık farklarını algılayabildiğinden dolayı görüntü karanlık değildir. Ancak düşük bulutları ve sisi yer sıcaklığından ayırmak zordur ve bu nedenle gece boyunca neredeyse görünmez olabilirler. Avrupa için Meteosat uydu görüntüleri gerçek zamanlı olarak her 5 dakikada bir güncellenir. GOES-16/GOES-17 (Kuzey ve Güney Amerika) ve Himawari (Asya) görüntüleri her 10 dakikada bir güncellenir.

Yağış radar ve uydudan tahmin edilir. Uydulardan gece yapılan yağış tahminleri gündüz yapılan tahminlere göre daha az kusursuzdur. Turuncu çarpılar şimşeklerin saptandığı yerleri gösterir (Avrupa üzeri).

Copyright 2022 EUMETSAT / meteoblue. nowcast tarafından sağlanan şimşek verileri.

En başa git